Tracking 27420 objects as of 29-May-2023
HD Live streaming from Space Station
objects crossing your sky now

FREGAT DEB

Track FREGAT DEB now!
10-day predictions


NORAD ID: 47112
Int'l Code: 2011-037NH
Perigee: 450.0 km
Apogee: 2,396.4 km
Inclination: 51.4 °
Period: 114.1 minutes
Semi major axis: 7794 km
RCS: Unknown
Launch date: July 18, 2011
Source: Commonwealth of Independent States (former USSR) (CIS)
Launch site: TYURATAM MISSILE AND SPACE COMPLEX (TTMTR)

Note: This is SATELLITE DEBRIS
Your satellite tracking list
Your tracking list is empty




NASA's NSSDC Master Catalog

Two Line Element Set (TLE):
1 47112U 11037NH  23148.56722254  .00149589  00000-0  27150-1 0  9990
2 47112  51.4077 281.1935 1248569 140.1464 229.8179 12.61668085121875
Source of the keplerian elements: AFSPC